RYR290 UMKK-EPWA

Flight info

Callsign RYR290
Flight time N/A
Altitude 23000
Route RUTAM3T RUTAM DCT REBSO DCT SOFUZ DCT ADINI DCT ERLEG
Aircraft A20N/M-SDE2E3FGHIRWXY/LB1

Departure

Time 2026-05-01 15:04
Airport Khrabrovo Airport (UMKK)

Arrival

Time N/A
Airport Warsaw Chopin Airport (EPWA)
Time Latitude Longitude Altitude Speed Heading
2026-05-01 14:43 54.88541 20.58679 34 ft 0 kts 154°
2026-05-01 14:59 54.88515 20.58709 33 ft 15 kts 132°
2026-05-01 14:59 54.88509 20.58741 34 ft 0 kts 90°
2026-05-01 15:00 54.88560 20.58812 33 ft 19 kts 358°
2026-05-01 15:00 54.88645 20.58748 33 ft 19 kts 339°
2026-05-01 15:01 54.88727 20.58688 34 ft 0 kts 335°
2026-05-01 15:03 54.88750 20.58669 33 ft 10 kts 335°
2026-05-01 15:03 54.88839 20.58695 32 ft 28 kts 31°
2026-05-01 15:03 54.89076 20.59459 34 ft 115 kts 65°
2026-05-01 15:04 54.89466 20.61083 217 ft 165 kts 69°
2026-05-01 15:04 54.89881 20.62981 848 ft 164 kts 68°
2026-05-01 15:04 54.90308 20.64947 1154 ft 186 kts 67°
2026-05-01 15:04 54.90803 20.67161 1397 ft 208 kts 66°
2026-05-01 15:05 54.91355 20.69628 1636 ft 230 kts 66°
2026-05-01 15:05 54.91959 20.72352 1831 ft 253 kts 67°
2026-05-01 15:05 54.92601 20.75279 2232 ft 264 kts 66°
2026-05-01 15:05 54.93531 20.78006 2784 ft 262 kts 44°
2026-05-01 15:06 54.94980 20.79781 3381 ft 258 kts 19°
2026-05-01 15:06 54.96734 20.80337 3989 ft 253 kts 355°
2026-05-01 15:06 54.98423 20.79583 4545 ft 254 kts 333°
2026-05-01 15:06 54.99815 20.77659 4917 ft 259 kts 310°
2026-05-01 15:07 55.00627 20.74861 4986 ft 263 kts 285°
2026-05-01 15:07 55.00670 20.71676 4989 ft 268 kts 260°
2026-05-01 15:07 54.99900 20.68716 4990 ft 273 kts 234°
2026-05-01 15:07 54.98442 20.66604 4987 ft 277 kts 207°
2026-05-01 15:08 54.96566 20.65849 5158 ft 282 kts 178°
2026-05-01 15:08 54.94657 20.66586 5678 ft 283 kts 159°
2026-05-01 15:08 54.92801 20.67784 6190 ft 286 kts 158°
2026-05-01 15:08 54.90862 20.68582 6674 ft 290 kts 178°
2026-05-01 15:09 54.88836 20.68420 7116 ft 293 kts 184°
2026-05-01 15:09 54.86796 20.68166 7549 ft 296 kts 184°
2026-05-01 15:09 54.84733 20.67892 7991 ft 299 kts 184°
2026-05-01 15:09 54.82645 20.67612 8403 ft 303 kts 184°
2026-05-01 15:10 54.80530 20.67335 8813 ft 306 kts 184°
2026-05-01 15:10 54.76258 20.66786 9636 ft 313 kts 184°
2026-05-01 15:10 54.74070 20.66512 10041 ft 317 kts 184°
2026-05-01 15:11 54.71861 20.66236 10413 ft 320 kts 184°
2026-05-01 15:11 54.67391 20.65677 11154 ft 324 kts 184°
2026-05-01 15:11 54.65133 20.65393 11508 ft 327 kts 184°
2026-05-01 15:12 54.62862 20.65107 11854 ft 329 kts 183°
2026-05-01 15:12 54.58263 20.65415 12515 ft 333 kts 173°
2026-05-01 15:12 54.55949 20.65833 12841 ft 335 kts 172°
2026-05-01 15:13 54.48938 20.67206 13843 ft 341 kts 172°
2026-05-01 15:14 54.44196 20.68046 14422 ft 344 kts 172°
2026-05-01 15:14 54.41805 20.68449 14684 ft 346 kts 172°
2026-05-01 15:14 54.36990 20.69250 15213 ft 349 kts 172°
2026-05-01 15:15 54.32125 20.70064 15735 ft 353 kts 172°
2026-05-01 15:15 54.27222 20.70881 16223 ft 356 kts 172°
2026-05-01 15:16 54.22274 20.71701 16680 ft 359 kts 172°
2026-05-01 15:16 54.17287 20.72541 17132 ft 362 kts 171°
2026-05-01 15:17 54.12262 20.73382 17568 ft 364 kts 171°
2026-05-01 15:18 54.04646 20.74655 18180 ft 369 kts 171°
2026-05-01 15:18 54.02086 20.75075 18375 ft 370 kts 171°
2026-05-01 15:19 53.94394 20.76339 18920 ft 373 kts 171°
2026-05-01 15:19 53.89217 20.77195 19218 ft 375 kts 171°
2026-05-01 15:19 53.86619 20.77625 19381 ft 375 kts 171°
2026-05-01 15:20 53.81375 20.78489 19694 ft 377 kts 171°
2026-05-01 15:20 53.78797 20.78907 19838 ft 377 kts 171°
2026-05-01 15:20 53.76184 20.79330 19987 ft 378 kts 171°
2026-05-01 15:21 53.73565 20.79755 20133 ft 378 kts 171°
2026-05-01 15:21 53.70944 20.80183 20259 ft 379 kts 171°
2026-05-01 15:21 53.68321 20.80613 20304 ft 379 kts 171°
2026-05-01 15:21 53.65695 20.81042 20301 ft 379 kts 171°
2026-05-01 15:22 53.60447 20.81893 20301 ft 379 kts 171°
2026-05-01 15:22 53.57822 20.82317 20301 ft 379 kts 171°
2026-05-01 15:22 53.55196 20.82740 20302 ft 379 kts 171°
2026-05-01 15:23 53.52570 20.83166 20301 ft 379 kts 171°
2026-05-01 15:23 53.49948 20.83592 20301 ft 379 kts 170°
2026-05-01 15:23 53.47323 20.84021 20301 ft 379 kts 170°
2026-05-01 15:23 53.44697 20.84446 20301 ft 379 kts 171°
2026-05-01 15:24 53.42075 20.84867 20307 ft 378 kts 170°
2026-05-01 15:24 53.39456 20.85288 20309 ft 378 kts 170°
2026-05-01 15:24 53.36842 20.85711 20310 ft 378 kts 170°
2026-05-01 15:24 53.34222 20.86132 20309 ft 378 kts 170°
2026-05-01 15:25 53.31606 20.86550 20308 ft 378 kts 170°
2026-05-01 15:25 53.28992 20.86968 20307 ft 378 kts 170°
2026-05-01 15:25 53.26376 20.87386 20307 ft 378 kts 170°
2026-05-01 15:25 53.23755 20.87804 20307 ft 378 kts 170°
2026-05-01 15:26 53.21139 20.88219 20319 ft 378 kts 170°
2026-05-01 15:26 53.18530 20.88632 20308 ft 379 kts 170°
2026-05-01 15:26 53.15894 20.89051 20310 ft 379 kts 170°
2026-05-01 15:26 53.13268 20.89470 20308 ft 379 kts 170°
2026-05-01 15:27 53.10665 20.89881 19881 ft 373 kts 170°
2026-05-01 15:27 53.08096 20.90285 19109 ft 370 kts 170°
2026-05-01 15:27 53.05546 20.90687 18341 ft 366 kts 170°
2026-05-01 15:28 53.00530 20.91477 16805 ft 357 kts 171°
2026-05-01 15:28 52.98076 20.91864 16090 ft 352 kts 171°
2026-05-01 15:28 52.95649 20.92250 15403 ft 348 kts 171°
2026-05-01 15:29 52.90897 20.92999 14080 ft 339 kts 172°
2026-05-01 15:29 52.88561 20.93363 13356 ft 334 kts 171°
2026-05-01 15:29 52.83996 20.94074 11957 ft 325 kts 172°
2026-05-01 15:30 52.79558 20.94769 10600 ft 316 kts 172°
2026-05-01 15:31 52.71032 20.96105 7771 ft 299 kts 172°
2026-05-01 15:31 52.66943 20.96735 6394 ft 291 kts 173°
2026-05-01 15:32 52.62971 20.97352 5160 ft 282 kts 173°
2026-05-01 15:32 52.59106 20.97952 5005 ft 279 kts 174°
2026-05-01 15:33 52.53304 20.98859 5011 ft 279 kts 174°
2026-05-01 15:34 52.47504 20.99758 5010 ft 280 kts 174°